FW2664 Weather Reports


Display with metric or nautical units.
time (UTC)temp
F
wind
direction
speed
MPH
gust
MPH
rain 1hr
in
rain 24hr
in
rain mn
in
humidity
%
barometer
mb
20260903222537 99 36 2.0 4.0 0.00 0.00 0.00 40 1012.6
20260903222035 100 82 0.0 3.0 0.00 0.00 0.00 39 1012.6
20260903221531 100 315 0.0 2.0 0.00 0.00 0.00 39 1012.4
20260903221028 100 62 1.0 4.0 0.00 0.00 0.00 38 1012.6
20260903220527 100 359 1.0 2.0 0.00 0.00 0.00 41 1012.4
20260903220022 100 41 1.0 4.0 0.00 0.00 0.00 39 1012.6
20260903215521 100 324 1.0 3.0 0.00 0.00 0.00 40 1012.4
20260903215021 100 52 3.0 4.0 0.00 0.00 0.00 38 1012.8
20260903214521 100 101 4.0 4.0 0.00 0.00 0.00 38 1012.5
20260903214021 99 92 2.0 4.0 0.00 0.00 0.00 40 1012.7
20260903213517 98 73 0.0 3.0 0.00 0.00 0.00 42 1012.7
20260903213012 95 31 0.0 3.0 0.00 0.00 0.00 46 1012.7
20260903212508 93 119 0.0 2.0 0.00 0.00 0.00 54 1012.7
20260903212003 95 96 2.0 3.0 0.00 0.00 0.00 53 1012.7
20260903211458 101 91 2.0 4.0 0.00 0.00 0.00 38 1012.8
20260903210955 104 37 2.0 3.0 0.00 0.00 0.00 35 1012.9
20260903210454 105 35 0.0 2.0 0.00 0.00 0.00 35 1013.0
20260903205950 106 22 0.0 2.0 0.00 0.00 0.00 36 1013.2
20260903205450 105 67 0.0 2.0 0.00 0.00 0.00 38 1013.2
20260903204944 104 49 0.0 2.0 0.00 0.00 0.00 36 1013.3
20260903204441 103 252 2.0 2.0 0.00 0.00 0.00 35 1013.2
20260903203936 102 345 0.0 2.0 0.00 0.00 0.00 37 1013.3
20260903203431 102 260 0.0 4.0 0.00 0.00 0.00 38 1013.4
20260903202931 102 215 4.0 6.0 0.00 0.00 0.00 36 1013.4
20260903202427 103 227 2.0 2.0 0.00 0.00 0.00 35 1013.4
20260903201927 102 263 0.0 2.0 0.00 0.00 0.00 38 1013.4
20260903201422 103 264 2.0 4.0 0.00 0.00 0.00 35 1013.6
20260903200921 103 265 2.0 3.0 0.00 0.00 0.00 35 1013.7
20260903200416 104 243 1.0 2.0 0.00 0.00 0.00 35 1013.8
20260903195911 102 214 0.0 2.0 0.00 0.00 0.00 36 1013.7
20260903195408 101 11 1.0 3.0 0.00 0.00 0.00 38 1013.8
20260903194908 101 243 0.0 2.0 0.00 0.00 0.00 42 1013.8
20260903194403 101 40 2.0 4.0 0.00 0.00 0.00 38 1013.9
20260903193858 100 264 0.0 3.0 0.00 0.00 0.00 38 1013.9
20260903193355 101 288 3.0 4.0 0.00 0.00 0.00 40 1014.0
20260903192850 102 267 2.0 3.0 0.00 0.00 0.00 38 1014.0
20260903192345 101 198 1.0 4.0 0.00 0.00 0.00 41 1014.0
20260903191842 101 269 2.0 4.0 0.00 0.00 0.00 43 1014.0
20260903191338 100 314 2.0 4.0 0.00 0.00 0.00 40 1014.0
20260903190837 100 230 1.0 3.0 0.00 0.00 0.00 40 1014.2
20260903190332 100 272 2.0 3.0 0.00 0.00 0.00 43 1014.2
20260903185831 101 266 3.0 3.0 0.00 0.00 0.00 39 1014.4
20260903185326 100 155 2.0 2.0 0.00 0.00 0.00 39 1014.4
20260903184822 100 252 1.0 5.0 0.00 0.00 0.00 39 1014.3
20260903184319 100 319 2.0 4.0 0.00 0.00 0.00 40 1014.4
20260903183814 100 344 0.0 2.0 0.00 0.00 0.00 43 1014.4
20260903183308 100 240 4.0 5.0 0.00 0.00 0.00 40 1014.6
20260903182807 101 273 4.0 4.0 0.00 0.00 0.00 39 1014.6
20260903182301 101 257 1.0 3.0 0.00 0.00 0.00 41 1014.6
20260903181801 100 347 0.0 2.0 0.00 0.00 0.00 44 1014.9
20260903181256 100 273 0.0 2.0 0.00 0.00 0.00 41 1015.0
20260903180751 100 269 0.0 2.0 0.00 0.00 0.00 40 1015.3
20260903180251 101 256 1.0 3.0 0.00 0.00 0.00 39 1015.0
20260903175750 100 269 0.0 3.0 0.00 0.00 0.00 40 1015.0
20260903175249 100 255 1.0 2.0 0.00 0.00 0.00 42 1015.4
20260903174749 100 247 2.0 3.0 0.00 0.00 0.00 42 1015.5
20260903174244 100 237 1.0 2.0 0.00 0.00 0.00 40 1015.4
20260903173739 100 241 1.0 3.0 0.00 0.00 0.00 45 1015.2
20260903173236 100 117 0.0 2.0 0.00 0.00 0.00 42 1015.4
20260903172736 100 265 2.0 3.0 0.00 0.00 0.00 43 1015.4
20260903172231 100 135 2.0 2.0 0.00 0.00 0.00 41 1015.6
20260903171726 99 10 0.0 3.0 0.00 0.00 0.00 43 1015.7
20260903171222 99 247 2.0 2.0 0.00 0.00 0.00 43 1015.7
20260903170720 99 267 4.0 4.0 0.00 0.00 0.00 42 1015.7
20260903170216 99 251 3.0 3.0 0.00 0.00 0.00 46 1015.8
20260903165714 99 107 0.0 2.0 0.00 0.00 0.00 45 1015.8
20260903165209 100 295 2.0 3.0 0.00 0.00 0.00 44 1015.8
20260903164709 100 219 0.0 1.0 0.00 0.00 0.00 46 1015.8
20260903164205 99 333 0.0 1.0 0.00 0.00 0.00 46 1015.9
20260903163704 99 341 0.0 2.0 0.00 0.00 0.00 47 1015.9
20260903163201 99 122 2.0 3.0 0.00 0.00 0.00 46 1016.1
20260903162657 98 6 0.0 2.0 0.00 0.00 0.00 49 1016.0
20260903162152 96 230 0.0 2.0 0.00 0.00 0.00 48 1016.2
20260903161648 96 36 2.0 3.0 0.00 0.00 0.00 48 1016.2
20260903161143 96 35 1.0 3.0 0.00 0.00 0.00 48 1016.2
20260903160639 96 89 2.0 2.0 0.00 0.00 0.00 48 1016.3
20260903160133 96 76 1.0 2.0 0.00 0.00 0.00 49 1016.4
20260903155632 95 64 2.0 3.0 0.00 0.00 0.00 50 1016.3
20260903155127 95 32 2.0 3.0 0.00 0.00 0.00 51 1016.2
20260903154623 96 105 2.0 3.0 0.00 0.00 0.00 51 1016.3
20260903154119 96 312 0.0 2.0 0.00 0.00 0.00 56 1016.2
20260903153614 95 31 0.0 2.0 0.00 0.00 0.00 58 1016.4
20260903153110 94 125 0.0 3.0 0.00 0.00 0.00 59 1016.3
20260903152606 94 291 0.0 2.0 0.00 0.00 0.00 60 1016.3
20260903152102 94 309 0.0 2.0 0.00 0.00 0.00 59 1016.4
20260903151601 93 247 0.0 3.0 0.00 0.00 0.00 63 1016.5
20260903151056 92 280 0.0 2.0 0.00 0.00 0.00 61 1016.4
20260903150556 92 208 2.0 2.0 0.00 0.00 0.00 64 1016.3
20260903150051 91 208 0.0 2.0 0.00 0.00 0.00 62 1016.4
20260903145551 91 204 0.0 3.0 0.00 0.00 0.00 63 1016.5
20260903145046 92 281 0.0 3.0 0.00 0.00 0.00 65 1016.5
20260903144545 91 258 0.0 2.0 0.00 0.00 0.00 66 1016.4
20260903144042 91 226 2.0 2.0 0.00 0.00 0.00 64 1016.4
20260903143537 91 93 1.0 2.0 0.00 0.00 0.00 62 1016.3
20260903143033 92 98 0.0 2.0 0.00 0.00 0.00 61 1016.3
20260903142528 91 59 0.0 2.0 0.00 0.00 0.00 63 1016.3
20260903142025 90 68 2.0 3.0 0.00 0.00 0.00 64 1016.5
20260903141520 89 117 0.0 2.0 0.00 0.00 0.00 65 1016.2
20260903141015 88 122 0.0 3.0 0.00 0.00 0.00 66 1016.3
20260903140511 88 78 2.0 4.0 0.00 0.00 0.00 67 1016.3
20260903140006 88 347 2.0 2.0 0.00 0.00 0.00 67 1016.5
20260903135501 89 48 1.0 3.0 0.00 0.00 0.00 68 1016.3
20260903134956 89 66 2.0 2.0 0.00 0.00 0.00 68 1016.4
20260903134455 88 75 1.0 2.0 0.00 0.00 0.00 68 1016.4
20260903133952 87 63 0.0 2.0 0.00 0.00 0.00 71 1016.5
20260903133449 86 325 1.0 2.0 0.00 0.00 0.00 72 1016.6
20260903132944 85 37 2.0 2.0 0.00 0.00 0.00 74 1016.6
20260903132440 84 70 0.0 2.0 0.00 0.00 0.00 75 1016.6
20260903131939 84 23 2.0 3.0 0.00 0.00 0.00 76 1016.6
20260903131434 84 327 0.0 2.0 0.00 0.00 0.00 75 1016.7
20260903130933 86 335 1.0 2.0 0.00 0.00 0.00 72 1016.7
20260903130428 85 100 2.0 2.0 0.00 0.00 0.00 73 1016.7
20260903125927 85 88 1.0 3.0 0.00 0.00 0.00 72 1016.5
20260903125427 84 77 2.0 2.0 0.00 0.00 0.00 75 1016.9
20260903124926 84 320 0.0 3.0 0.00 0.00 0.00 75 1016.8
20260903124422 83 6 0.0 2.0 0.00 0.00 0.00 77 1016.8
20260903123920 83 19 1.0 2.0 0.00 0.00 0.00 77 1016.7
20260903123415 82 62 1.0 2.0 0.00 0.00 0.00 79 1016.6
20260903122914 81 74 1.0 2.0 0.00 0.00 0.00 81 1016.8
20260903122409 80 67 2.0 3.0 0.00 0.00 0.00 84 1016.7
20260903121908 78 64 2.0 3.0 0.00 0.00 0.00 86 1016.7
20260903121403 77 64 1.0 2.0 0.00 0.00 0.00 89 1016.7
20260903120859 76 56 2.0 2.0 0.00 0.00 0.00 90 1016.5
20260903120358 76 77 2.0 3.0 0.00 0.00 0.00 92 1016.4
20260903115856 75 83 2.0 4.0 0.00 0.00 0.00 93 1016.4
20260903115351 75 53 2.0 2.0 0.00 0.00 0.00 95 1016.5
20260903114846 75 70 0.0 2.0 0.00 0.00 0.00 95 1016.4
20260903114342 74 60 3.0 3.0 0.00 0.00 0.00 96 1016.3
20260903113837 74 63 1.0 2.0 0.00 0.00 0.00 96 1016.3
20260903113332 74 52 1.0 2.0 0.00 0.00 0.00 96 1016.3
20260903112828 74 24 0.0 2.0 0.00 0.00 0.00 96 1016.3
20260903112324 74 52 1.0 2.0 0.00 0.00 0.00 96 1016.3
20260903111823 74 81 1.0 2.0 0.00 0.00 0.00 96 1016.3
20260903111317 74 51 0.0 2.0 0.00 0.00 0.00 96 1016.1
20260903110813 75 58 0.0 2.0 0.00 0.00 0.00 96 1015.9
20260903110309 75 63 1.0 2.0 0.00 0.00 0.00 96 1015.9
20260903105809 74 43 1.0 2.0 0.00 0.00 0.00 96 1015.8
20260903105306 75 59 0.0 2.0 0.00 0.00 0.00 96 1015.8
20260903104806 75 60 1.0 2.0 0.00 0.00 0.00 96 1015.8
20260903104304 75 63 0.0 2.0 0.00 0.00 0.00 95 1015.7
20260903103800 75 73 0.0 2.0 0.00 0.00 0.00 95 1015.7
20260903103257 75 72 2.0 2.0 0.00 0.00 0.00 95 1015.7
20260903102752 75 65 1.0 2.0 0.00 0.00 0.00 95 1015.6
20260903102251 75 40 0.0 2.0 0.00 0.00 0.00 95 1015.6
20260903101750 75 40 0.0 2.0 0.00 0.00 0.00 95 1015.5
20260903101247 75 83 1.0 2.0 0.00 0.00 0.00 95 1015.6
20260903100742 75 84 2.0 2.0 0.00 0.00 0.00 95 1015.3
20260903100241 75 56 2.0 2.0 0.00 0.00 0.00 95 1015.6
20260903095739 75 95 1.0 2.0 0.00 0.00 0.00 94 1015.6
20260903095234 75 56 1.0 2.0 0.00 0.00 0.00 94 1015.4
20260903094729 75 50 0.0 2.0 0.00 0.00 0.00 94 1015.5
20260903094224 75 77 0.0 2.0 0.00 0.00 0.00 94 1015.3
20260903093719 75 113 0.0 2.0 0.00 0.00 0.00 94 1015.4
20260903093215 75 93 2.0 2.0 0.00 0.00 0.00 94 1015.4
20260903092713 75 54 1.0 2.0 0.00 0.00 0.00 94 1015.4
20260903092209 75 62 1.0 2.0 0.00 0.00 0.00 93 1015.3
20260903091707 75 72 1.0 2.0 0.00 0.00 0.00 93 1015.3
20260903091202 75 57 1.0 2.0 0.00 0.00 0.00 93 1015.3
20260903090658 75 77 0.0 2.0 0.00 0.00 0.00 93 1015.4
20260903090156 75 54 2.0 2.0 0.00 0.00 0.00 94 1015.4
20260903085655 75 71 0.0 2.0 0.00 0.00 0.00 94 1015.4
20260903085151 75 63 1.0 2.0 0.00 0.00 0.00 94 1015.6
20260903084648 75 63 0.0 2.0 0.00 0.00 0.00 93 1015.6
20260903084143 75 89 0.0 2.0 0.00 0.00 0.00 93 1015.6
20260903083639 75 67 1.0 2.0 0.00 0.00 0.00 93 1015.6
20260903083139 75 65 1.0 2.0 0.00 0.00 0.00 93 1015.5
20260903082633 75 56 1.0 2.0 0.00 0.00 0.00 93 1015.4
20260903082129 76 75 0.0 2.0 0.00 0.00 0.00 93 1015.4
20260903081624 76 77 0.0 2.0 0.00 0.00 0.00 93 1015.4
20260903081120 76 357 1.0 2.0 0.00 0.00 0.00 93 1015.2
20260903080616 76 62 0.0 2.0 0.00 0.00 0.00 92 1015.4
20260903080113 76 73 1.0 2.0 0.00 0.00 0.00 92 1015.3
20260903075607 76 96 0.0 2.0 0.00 0.00 0.00 92 1015.2
20260903075102 76 66 1.0 2.0 0.00 0.00 0.00 92 1015.2
20260903074601 76 23 0.0 2.0 0.00 0.00 0.00 92 1015.3
20260903074056 76 82 1.0 2.0 0.00 0.00 0.00 92 1015.2
20260903073551 76 81 2.0 2.0 0.00 0.00 0.00 92 1015.3
20260903073047 76 42 1.0 2.0 0.00 0.00 0.00 92 1015.4
20260903072543 76 87 1.0 2.0 0.00 0.00 0.00 92 1015.2
20260903072039 76 59 1.0 2.0 0.00 0.00 0.00 92 1015.2
20260903071535 76 68 2.0 2.0 0.00 0.00 0.00 92 1015.2
20260903071030 76 61 1.0 2.0 0.00 0.00 0.00 92 1015.2
20260903070530 77 59 0.0 2.0 0.00 0.00 0.00 92 1015.3
20260903070026 77 71 1.0 2.0 0.00 0.00 0.00 92 1015.2
20260903065525 77 79 1.0 2.0 0.00 0.00 0.00 92 1015.4
20260903065025 77 68 1.0 2.0 0.00 0.00 0.00 92 1015.4
20260903064525 77 46 1.0 2.0 0.00 0.00 0.00 92 1015.3
20260903064021 77 50 0.0 2.0 0.00 0.00 0.00 92 1015.2
20260903063516 77 55 1.0 2.0 0.00 0.00 0.00 91 1015.4
20260903063011 77 68 1.0 2.0 0.00 0.00 0.00 91 1015.4
20260903062506 77 75 1.0 2.0 0.00 0.00 0.00 91 1015.5
20260903062001 77 58 2.0 2.0 0.00 0.00 0.00 91 1015.4
20260903061456 77 64 0.0 2.0 0.00 0.00 0.00 91 1015.3
20260903060952 78 58 0.0 2.0 0.00 0.00 0.00 91 1015.5
20260903060451 78 53 2.0 3.0 0.00 0.00 0.00 91 1015.3
20260903055950 78 85 1.0 2.0 0.00 0.00 0.00 91 1015.3
20260903055449 78 68 1.0 2.0 0.00 0.00 0.00 91 1015.5
20260903054948 78 106 0.0 2.0 0.00 0.00 0.00 91 1015.3
20260903054443 78 34 2.0 2.0 0.00 0.00 0.00 90 1015.4
20260903053939 78 329 0.0 2.0 0.00 0.00 0.00 90 1015.2
20260903053438 78 48 1.0 2.0 0.00 0.00 0.00 90 1015.2
20260903052936 78 92 1.0 2.0 0.00 0.00 0.00 90 1015.4
20260903052431 78 84 1.0 2.0 0.00 0.00 0.00 89 1015.4
20260903051926 78 71 0.0 3.0 0.00 0.00 0.00 89 1015.3
20260903051422 78 80 0.0 2.0 0.00 0.00 0.00 89 1015.2
20260903050917 78 99 1.0 2.0 0.00 0.00 0.00 88 1015.4
20260903050416 79 42 0.0 2.0 0.00 0.00 0.00 88 1015.2
20260903045911 79 73 0.0 2.0 0.00 0.00 0.00 88 1015.2
20260903045406 79 98 0.0 2.0 0.00 0.00 0.00 87 1015.3
20260903044903 79 74 0.0 1.0 0.00 0.00 0.00 88 1015.2
20260903044403 79 69 0.0 3.0 0.00 0.00 0.00 87 1015.4
20260903043900 79 72 1.0 2.0 0.00 0.00 0.00 86 1015.2
20260903043355 79 74 1.0 2.0 0.00 0.00 0.00 85 1015.1
20260903042853 79 101 0.0 2.0 0.00 0.00 0.00 85 1015.2
20260903042349 79 70 2.0 2.0 0.00 0.00 0.00 85 1015.4
20260903041845 79 47 0.0 2.0 0.00 0.00 0.00 85 1015.1
20260903041341 79 84 1.0 2.0 0.00 0.00 0.00 84 1015.1
20260903040836 79 49 0.0 2.0 0.00 0.00 0.00 83 1015.3
20260903040335 80 63 0.0 2.0 0.00 0.00 0.00 83 1015.3
20260903035832 80 95 0.0 2.0 0.00 0.00 0.00 82 1015.3
20260903035326 80 59 0.0 2.0 0.00 0.00 0.00 81 1015.3
20260903034822 80 77 0.0 2.0 0.00 0.00 0.00 81 1015.2
20260903034317 80 84 0.0 2.0 0.00 0.00 0.00 80 1015.2
20260903033812 80 57 1.0 2.0 0.00 0.00 0.00 80 1015.3
20260903033307 80 79 1.0 2.0 0.00 0.00 0.00 80 1015.1
20260903032801 81 25 0.0 2.0 0.00 0.00 0.00 80 1015.2
20260903032257 81 108 1.0 2.0 0.00 0.00 0.00 79 1015.2
20260903031753 81 60 2.0 2.0 0.00 0.00 0.00 79 1015.3
20260903031252 81 40 1.0 3.0 0.00 0.00 0.00 79 1015.2
20260903030748 81 66 1.0 2.0 0.00 0.00 0.00 79 1015.3
20260903030243 81 63 0.0 2.0 0.00 0.00 0.00 79 1015.3
20260903025739 81 69 0.0 1.0 0.00 0.00 0.00 79 1015.4
20260903025234 81 81 0.0 2.0 0.00 0.00 0.00 78 1015.3
20260903024729 81 69 1.0 2.0 0.00 0.00 0.00 79 1015.4
20260903024228 81 66 0.0 2.0 0.00 0.00 0.00 77 1015.3
20260903023724 82 68 2.0 2.0 0.00 0.00 0.00 76 1015.3
20260903023220 82 72 0.0 2.0 0.00 0.00 0.00 76 1015.3
20260903022719 82 20 1.0 2.0 0.00 0.00 0.00 75 1015.3
20260903022218 82 72 0.0 2.0 0.00 0.00 0.00 75 1015.3
20260903021718 82 84 1.0 2.0 0.00 0.00 0.00 75 1015.2
20260903021214 82 74 1.0 2.0 0.00 0.00 0.00 74 1015.3
20260903020713 83 36 0.0 2.0 0.00 0.00 0.00 74 1015.3
20260903020208 83 60 1.0 2.0 0.00 0.00 0.00 74 1015.2
20260903015703 83 100 0.0 2.0 0.00 0.00 0.00 72 1015.1
20260903015159 83 19 1.0 2.0 0.00 0.00 0.00 73 1015.1
20260903014654 83 57 1.0 2.0 0.00 0.00 0.00 72 1015.1
20260903014153 83 56 0.0 2.0 0.00 0.00 0.00 72 1014.8
20260903013648 83 86 0.0 2.0 0.00 0.00 0.00 72 1014.9
20260903013148 84 81 1.0 2.0 0.00 0.00 0.00 72 1014.9
20260903012647 84 70 0.0 2.0 0.00 0.00 0.00 71 1014.8
20260903012146 84 41 0.0 2.0 0.00 0.00 0.00 70 1014.8
20260903011641 84 97 0.0 2.0 0.00 0.00 0.00 70 1014.9
20260903011140 85 96 0.0 2.0 0.00 0.00 0.00 69 1014.8
20260903010636 85 35 1.0 2.0 0.00 0.00 0.00 69 1014.7
20260903010135 85 77 0.0 2.0 0.00 0.00 0.00 69 1014.7
20260903005634 85 81 2.0 2.0 0.00 0.00 0.00 69 1014.8
20260903005130 86 104 1.0 2.0 0.00 0.00 0.00 68 1014.6
20260903004625 86 85 1.0 2.0 0.00 0.00 0.00 66 1014.6
20260903004120 86 99 0.0 1.0 0.00 0.00 0.00 67 1014.6
20260903003616 87 62 0.0 2.0 0.00 0.00 0.00 65 1014.5
20260903003111 87 49 1.0 2.0 0.00 0.00 0.00 63 1014.7
20260903002606 88 38 0.0 1.0 0.00 0.00 0.00 62 1014.8
20260903002100 88 83 0.0 2.0 0.00 0.00 0.00 61 1014.8
20260903001555 89 64 0.0 2.0 0.00 0.00 0.00 60 1014.8
20260903001054 89 73 0.0 2.0 0.00 0.00 0.00 60 1014.4
20260903000550 90 88 1.0 2.0 0.00 0.00 0.00 59 1014.6
20260903000044 90 74 0.0 2.0 0.00 0.00 0.00 58 1014.7
20260902235543 91 22 0.0 2.0 0.00 0.00 0.00 57 1014.6
20260902235039 91 84 0.0 1.0 0.00 0.00 0.00 55 1014.8
20260902234538 92 42 0.0 2.0 0.00 0.00 0.00 54 1014.7
20260902234037 92 72 0.0 2.0 0.00 0.00 0.00 53 1014.8
20260902233532 93 358 0.0 2.0 0.00 0.00 0.00 51 1014.8
20260902233027 93 89 0.0 2.0 0.00 0.00 0.00 50 1014.7
20260902232526 94 89 0.0 1.0 0.00 0.00 0.00 48 1014.8
20260902232020 94 37 0.0 1.0 0.00 0.00 0.00 48 1014.9
20260902231515 95 42 0.0 2.0 0.00 0.00 0.00 46 1014.8
20260902231015 95 29 0.0 2.0 0.00 0.00 0.00 46 1014.8
20260902230514 95 53 0.0 1.0 0.00 0.00 0.00 45 1014.7
20260902230009 95 54 1.0 2.0 0.00 0.00 0.00 45 1014.8
20260902225504 95 45 1.0 2.0 0.00 0.00 0.00 44 1014.7
20260902225004 96 31 0.0 2.0 0.00 0.00 0.00 47 1014.7
20260902224503 96 70 1.0 2.0 0.00 0.00 0.00 45 1014.8
20260902223959 96 25 1.0 2.0 0.00 0.00 0.00 43 1014.7
20260902223455 96 120 1.0 2.0 0.00 0.00 0.00 44 1014.8
20260902222954 97 70 2.0 3.0 0.00 0.00 0.00 42 1014.8